Simultaneous Nadir Overpasses (SNOs) Predictions

Prediction of SNOs between GOES-15 and METOP-A Satellite Orbit:

Table of predicted SNOs for the next 14.0 days since TLE Epoch: 10/20/2017
Index Date Time (GOES-15) GOES-15 Lat,Lon METOP-A Lat,Lon Distance(km) Time Diff (sec)
1 10/21/2017 06:37:28 0.27,-135.15 -0.17,-137.22 236.33 80
2 10/22/2017 06:14:08 0.27,-135.12 0.94,-132.23 329.76 80
3 10/23/2017 18:32:57 -0.27,-135.11 0.11,-136.78 190.76 80
4 10/24/2017 18:14:57 -0.26,-135.08 -1.00,-131.79 375.68 80
5 10/26/2017 06:33:55 0.26,-135.00 -0.04,-136.38 156.78 80
6 10/27/2017 06:10:35 0.26,-134.96 1.07,-131.38 408.51 80
7 10/28/2017 18:29:24 -0.26,-134.94 -0.03,-135.94 113.81 80
8 10/29/2017 18:11:23 -0.25,-134.90 -1.15,-130.94 451.89 80
9 10/31/2017 06:30:22 0.25,-134.82 0.10,-135.53 80.81 80
10 11/01/2017 06:07:01 0.25,-134.78 1.22,-130.54 483.71 80
11 11/02/2017 18:25:50 -0.25,-134.73 -0.18,-135.09 40.43 80




NCC Satellite Simultaneous Nadir Overpasses (SNOs) Prediction Service
